Time,TemperatureF,DewpointF,PressureIn,WindDirection,WindDirectionDegrees,WindSpeedMPH,WindSpeedGustMPH,Humidity,HourlyPrecipIn,Conditions,Clouds,dailyrainin,SoftwareType,DateUTC
2015-08-31 00:03:00,66.0,64.0,29.89,SSW,209,6.0,11.0,92,-99.99,,,-99.99,,2015-08-31 05:03:00,
2015-08-31 00:15:00,66.0,64.0,29.89,South,170,8.0,13.0,93,-99.99,,,-99.99,,2015-08-31 05:15:00,
2015-08-31 00:26:00,66.0,64.0,29.89,South,170,8.0,13.0,93,-99.99,,,-99.99,,2015-08-31 05:26:00,
2015-08-31 00:36:00,66.0,64.0,29.89,South,175,7.0,12.0,93,-99.99,,,-99.99,,2015-08-31 05:36:00,
2015-08-31 00:44:00,66.0,64.0,29.89,South,175,7.0,12.0,93,-99.99,,,-99.99,,2015-08-31 05:44:00,
2015-08-31 01:03:00,66.0,64.0,29.89,SSW,194,6.0,11.0,93,-99.99,,,-99.99,,2015-08-31 06:03:00,
2015-08-31 01:13:00,66.0,64.0,29.89,SSW,194,6.0,11.0,93,-99.99,,,-99.99,,2015-08-31 06:13:00,
2015-08-31 01:23:00,66.0,64.0,29.89,SE,128,8.0,15.0,94,-99.99,,,-99.99,,2015-08-31 06:23:00,
2015-08-31 01:33:00,66.0,64.0,29.89,SSE,164,8.0,15.0,94,-99.99,,,-99.99,,2015-08-31 06:33:00,
2015-08-31 01:44:00,66.0,64.0,29.89,SSE,164,8.0,15.0,94,-99.99,,,-99.99,,2015-08-31 06:44:00,
2015-08-31 01:53:00,65.0,63.0,29.89,South,170,6.0,12.0,94,-99.99,,,-99.99,,2015-08-31 06:53:00,
2015-08-31 02:03:00,65.0,63.0,29.89,South,170,6.0,12.0,94,-99.99,,,-99.99,,2015-08-31 07:03:00,
2015-08-31 02:13:00,65.0,63.0,29.88,South,172,8.0,13.0,94,-99.99,,,-99.99,,2015-08-31 07:13:00,
2015-08-31 02:23:00,65.0,63.0,29.88,SSE,152,4.0,16.0,94,-99.99,,,-99.99,,2015-08-31 07:23:00,
2015-08-31 02:33:00,65.0,63.0,29.88,SSE,152,4.0,16.0,94,-99.99,,,-99.99,,2015-08-31 07:33:00,
2015-08-31 02:44:00,65.0,63.0,29.88,SSE,167,5.0,8.0,94,-99.99,,,-99.99,,2015-08-31 07:44:00,
2015-08-31 03:03:00,65.0,64.0,29.88,SSW,204,5.0,11.0,95,-99.99,,,-99.99,,2015-08-31 08:03:00,
2015-08-31 03:13:00,65.0,64.0,29.88,SSE,165,6.0,11.0,95,-99.99,,,-99.99,,2015-08-31 08:13:00,
2015-08-31 03:23:00,65.0,64.0,29.88,South,175,6.0,14.0,95,-99.99,,,-99.99,,2015-08-31 08:23:00,
2015-08-31 03:33:00,65.0,64.0,29.88,South,175,6.0,14.0,95,-99.99,,,-99.99,,2015-08-31 08:33:00,
2015-08-31 03:44:00,65.0,64.0,29.88,SSE,159,7.0,13.0,95,-99.99,,,-99.99,,2015-08-31 08:44:00,
2015-08-31 03:54:00,65.0,64.0,29.88,South,181,8.0,11.0,95,-99.99,,,-99.99,,2015-08-31 08:54:00,
2015-08-31 04:03:00,65.0,64.0,29.88,South,181,8.0,11.0,95,-99.99,,,-99.99,,2015-08-31 09:03:00,
2015-08-31 04:12:00,65.0,64.0,29.88,South,173,5.0,9.0,95,-99.99,,,-99.99,,2015-08-31 09:12:00,
2015-08-31 04:23:00,65.0,64.0,29.88,SSE,162,7.0,12.0,95,-99.99,,,-99.99,,2015-08-31 09:23:00,
2015-08-31 04:36:00,65.0,64.0,29.88,SSE,165,6.0,-999.0,95,-99.99,,,-99.99,,2015-08-31 09:36:00,
2015-08-31 04:44:00,65.0,64.0,29.88,SSE,165,6.0,11.0,95,-99.99,,,-99.99,,2015-08-31 09:44:00,
2015-08-31 04:53:00,65.0,64.0,29.88,SE,137,7.0,10.0,95,-99.99,,,-99.99,,2015-08-31 09:53:00,
2015-08-31 05:03:00,65.0,64.0,29.88,SE,137,7.0,10.0,95,-99.99,,,-99.99,,2015-08-31 10:03:00,
2015-08-31 05:13:00,65.0,64.0,29.88,SSE,156,7.0,11.0,95,-99.99,,,-99.99,,2015-08-31 10:13:00,
2015-08-31 05:23:00,65.0,64.0,29.87,South,183,7.0,10.0,95,-99.99,,,-99.99,,2015-08-31 10:23:00,
2015-08-31 05:33:00,65.0,64.0,29.87,South,183,7.0,10.0,95,-99.99,,,-99.99,,2015-08-31 10:33:00,
2015-08-31 05:43:00,65.0,64.0,29.87,South,177,7.0,10.0,95,-99.99,,,-99.99,,2015-08-31 10:43:00,
2015-08-31 05:53:00,65.0,64.0,29.87,South,173,7.0,12.0,95,-99.99,,,-99.99,,2015-08-31 10:53:00,
2015-08-31 06:04:00,65.0,64.0,29.87,South,173,7.0,12.0,95,-99.99,,,-99.99,,2015-08-31 11:04:00,
2015-08-31 06:13:00,65.0,64.0,29.88,South,169,5.0,11.0,95,-99.99,,,-99.99,,2015-08-31 11:13:00,
2015-08-31 06:23:00,65.0,64.0,29.88,SSE,168,6.0,11.0,95,-99.99,,,-99.99,,2015-08-31 11:23:00,
2015-08-31 06:34:00,65.0,64.0,29.88,SSE,168,6.0,11.0,95,-99.99,,,-99.99,,2015-08-31 11:34:00,
2015-08-31 06:44:00,65.0,64.0,29.88,SSE,165,5.0,15.0,95,-99.99,,,-99.99,,2015-08-31 11:44:00,
2015-08-31 06:53:00,65.0,64.0,29.88,SSE,160,5.0,10.0,95,-99.99,,,-99.99,,2015-08-31 11:53:00,
2015-08-31 07:04:00,65.0,64.0,29.88,SSE,160,5.0,10.0,95,-99.99,,,-99.99,,2015-08-31 12:04:00,
2015-08-31 07:13:00,65.0,64.0,29.88,South,182,7.0,12.0,95,-99.99,,,-99.99,,2015-08-31 12:13:00,
2015-08-31 07:23:00,65.0,64.0,29.88,SSE,158,5.0,14.0,95,-99.99,,,-99.99,,2015-08-31 12:23:00,
2015-08-31 07:34:00,65.0,64.0,29.88,SSE,158,5.0,14.0,95,-99.99,,,-99.99,,2015-08-31 12:34:00,
2015-08-31 07:44:00,65.0,64.0,29.88,South,177,7.0,17.0,96,-99.99,,,-99.99,,2015-08-31 12:44:00,
2015-08-31 07:54:00,65.0,64.0,29.88,ESE,123,8.0,11.0,96,-99.99,,,-99.99,,2015-08-31 12:54:00,
2015-08-31 08:04:00,65.0,64.0,29.88,ESE,123,8.0,11.0,96,-99.99,,,-99.99,,2015-08-31 13:04:00,
2015-08-31 08:13:00,66.0,65.0,29.88,SSE,165,6.0,14.0,95,-99.99,,,-99.99,,2015-08-31 13:13:00,
2015-08-31 08:24:00,67.0,66.0,29.88,SSW,206,8.0,15.0,95,-99.99,,,-99.99,,2015-08-31 13:24:00,
2015-08-31 08:34:00,67.0,66.0,29.88,SSW,206,8.0,15.0,95,-99.99,,,-99.99,,2015-08-31 13:34:00,
2015-08-31 08:43:00,67.0,65.0,29.88,SE,141,5.0,10.0,94,-99.99,,,-99.99,,2015-08-31 13:43:00,
2015-08-31 08:53:00,68.0,66.0,29.88,South,171,5.0,13.0,94,-99.99,,,-99.99,,2015-08-31 13:53:00,
2015-08-31 09:03:00,68.0,66.0,29.88,South,171,5.0,13.0,94,-99.99,,,-99.99,,2015-08-31 14:03:00,
2015-08-31 09:13:00,68.0,66.0,29.88,SE,126,6.0,11.0,93,-99.99,,,-99.99,,2015-08-31 14:13:00,
2015-08-31 09:23:00,69.0,67.0,29.88,South,180,7.0,14.0,92,-99.99,,,-99.99,,2015-08-31 14:23:00,
2015-08-31 09:33:00,69.0,67.0,29.88,South,180,7.0,14.0,92,-99.99,,,-99.99,,2015-08-31 14:33:00,
2015-08-31 09:43:00,70.0,67.0,29.88,South,169,7.0,12.0,91,-99.99,,,-99.99,,2015-08-31 14:43:00,
2015-08-31 09:51:00,71.0,68.0,29.88,SSE,165,6.0,14.0,89,-99.99,,,-99.99,,2015-08-31 14:51:00,
2015-08-31 09:53:00,70.0,67.0,29.88,SE,128,6.0,12.0,90,-99.99,,,-99.99,,2015-08-31 14:53:00,
2015-08-31 10:03:00,70.0,67.0,29.88,SE,128,6.0,12.0,90,-99.99,,,-99.99,,2015-08-31 15:03:00,
2015-08-31 10:13:00,71.0,68.0,29.88,SSE,165,6.0,14.0,89,-99.99,,,-99.99,,2015-08-31 15:13:00,
2015-08-31 10:23:00,71.0,68.0,29.88,SSE,165,6.0,14.0,89,-99.99,,,-99.99,,2015-08-31 15:23:00,
2015-08-31 10:33:00,71.0,68.0,29.88,SSE,165,6.0,14.0,89,-99.99,,,-99.99,,2015-08-31 15:33:00,
2015-08-31 10:44:00,71.0,68.0,29.88,SSE,165,6.0,14.0,89,-99.99,,,-99.99,,2015-08-31 15:44:00,
2015-08-31 14:04:00,79.0,70.0,29.85,SSE,165,7.0,19.0,75,-99.99,,,-99.99,,2015-08-31 19:04:00,
2015-08-31 14:13:00,79.0,70.0,29.85,SSE,148,7.0,21.0,75,-99.99,,,-99.99,,2015-08-31 19:13:00,
2015-08-31 14:34:00,80.0,71.0,29.86,SW,225,9.0,18.0,73,-99.99,,,-99.99,,2015-08-31 19:34:00,
2015-08-31 14:44:00,80.0,70.0,29.85,SSE,153,10.0,17.0,72,-99.99,,,-99.99,,2015-08-31 19:44:00,
2015-08-31 15:04:00,80.0,69.0,29.85,South,184,10.0,19.0,70,-99.99,,,-99.99,,2015-08-31 20:04:00,
2015-08-31 15:13:00,81.0,70.0,29.85,SSE,160,7.0,16.0,70,-99.99,,,-99.99,,2015-08-31 20:13:00,
2015-08-31 15:23:00,81.0,69.0,29.84,South,182,8.0,22.0,68,-99.99,,,-99.99,,2015-08-31 20:23:00,
2015-08-31 15:33:00,81.0,69.0,29.84,South,182,8.0,22.0,68,-99.99,,,-99.99,,2015-08-31 20:33:00,
2015-08-31 15:44:00,82.0,70.0,29.84,SSE,165,10.0,17.0,67,-99.99,,,-99.99,,2015-08-31 20:44:00,
2015-08-31 15:53:00,82.0,69.0,29.84,South,184,10.0,19.0,65,-99.99,,,-99.99,,2015-08-31 20:53:00,